Location: Bogis-Bossey
(46.3500°N, 6.1667°E)
Time: 17:38:44
(UTC+00:00)

Cosmos 2228 Rocket - Pass Details

Date: 17 August 2022
Orbit: 616 x 652 km, 82.5° (Epoch: 30 September)

Event Time Altitude Azimuth Distance (km) Brightness Sun altitude
Rises 20:26:21 0° 360° (N) 2,986 7.2 -16.4°
Reaches altitude 10° 20:28:55 10° 12° (NNE) 2,068 6.1 -16.7°
Maximum altitude 20:32:53 28° 72° (ENE) 1,218 4.3 -17.2°
Enters shadow 20:33:51 26° 94° (E) 1,281 4.2 -17.3°
